Content
SEND FEEDBACK

Daily
Averages
Monthly
Summary
United States of America

FAYETTEVILLE, TENNESSEE


Home > North America > United States > Tennessee
Elevation: 213 meters     Latitude: 35 10N     Longitude: 086 33W

WEATHER
 
SELECT A DAY
Number of Records: 307,919;   Date Range: 4/22/02 - 11/26/14
 
SHARE

PRINT THIS DATA

[ ← Previous Day ]
WEATHER ALMANAC - 15 OCTOBER, 2013
[ Next Day → ]
[ °F ]   °C
Weather ElementAverageHighLow
Temperature18.8 °C22 °C (11:15 am)17 °C (1:15 am)
Dewpoint12.4 °C14 °C (1:15 am)10 °C (11:15 am)
Humidity67.3 %82 % (1:15 am)46 % (11:15 am)
Barometer1019 hPa1020.7 hPa (12:55 am)1016.9 hPa (11:55 pm)
Wind Speed6.4 km/h20.4 km/h (11:15 am)
Wind Gust31.5 km/h (11:15 am)
Weather ElementAverage
Visibility16.1 km
Wind DirectionENE (82.3 °)

Weather ElementTotal
Precipitation---
Cooling Degree Days1.2 (Base 18.3)
Growing Degree Days9.5 (Base 10)
Averaged from 70 records on 15 October, 2013
WEATHER CONDITIONS BREAKOUT
WIND DIRECTION BREAKOUT
WEATHER BY HOUR - 15 OCTOBER, 2013
[ °F ]   °C
Local TimeTemperatureDewpointHumidityBarometerVisibilityWind DirectionWind SpeedGust SpeedPrecipitationEventsConditions
12:35 AM18 °C13 °C73 %1020 hPa16.1 kmSE (140°)7.4 km/hClear
12:55 AM18 °C13 °C73 %1020.7 hPa16.1 kmCalmClear
1:15 AM17 °C14 °C82 %1020.7 hPa16.1 kmCalmClear
1:35 AM18 °C13 °C73 %1020.3 hPa16.1 kmCalmClear
1:55 AM18 °C13 °C73 %1020.3 hPa16.1 kmCalmClear
2:15 AM17 °C13 °C77 %1020.3 hPa16.1 kmCalmClear
2:35 AM18 °C13 °C73 %1020.3 hPa16.1 kmSE (140°)5.6 km/hClear
2:55 AM18 °C13 °C73 %1020.3 hPa16.1 kmSSE (150°)5.6 km/hClear
3:15 AM17 °C13 °C77 %1020 hPa16.1 kmCalmClear
3:35 AM17 °C13 °C77 %1020 hPa16.1 kmCalmClear
3:55 AM17 °C13 °C77 %1020.3 hPa16.1 kmCalmClear
4:15 AM17 °C14 °C82 %1020.3 hPa16.1 kmCalmClear
4:35 AM17 °C14 °C82 %1020.3 hPa16.1 kmCalmClear
4:55 AM17 °C14 °C82 %1020 hPa16.1 kmCalmClear
5:15 AM17 °C14 °C82 %1020 hPa16.1 kmCalmClear
5:35 AM17 °C14 °C82 %1020 hPa16.1 kmCalmClear
5:55 AM17 °C14 °C82 %1020 hPa16.1 kmESE (120°)5.6 km/hClear
6:15 AM17 °C13 °C77 %1020 hPa16.1 kmCalmClear
6:35 AM17 °C13 °C77 %1020 hPa16.1 kmCalmClear
6:55 AM17 °C14 °C82 %1020.3 hPa16.1 kmCalmClear
7:15 AM17 °C13 °C77 %1020.3 hPa16.1 kmCalmClear
7:35 AM17 °C13 °C77 %1020.3 hPa16.1 kmCalmClear
7:55 AM17 °C13 °C77 %1020.3 hPa16.1 kmSE (130°)11.1 km/hClear
8:15 AM18 °C13 °C73 %1020.3 hPa16.1 kmSSE (150°)11.1 km/hClear
8:35 AM18 °C13 °C73 %1020.7 hPa16.1 kmSSE (150°)11.1 km/hClear
8:55 AM18 °C13 °C73 %1020.7 hPa16.1 kmSSE (150°)9.3 km/hClear
9:15 AM19 °C13 °C68 %1020.7 hPa16.1 kmSE (140°)13 km/hClear
9:35 AM20 °C12 °C60 %1020.3 hPa16.1 kmSE (140°)11.1 km/hClear
9:55 AM20 °C12 °C60 %1020.3 hPa16.1 kmSE (140°)11.1 km/hClear
10:15 AM20 °C11 °C56 %1020.3 hPa16.1 kmSSE (150°)13 km/hClear
10:35 AM21 °C11 °C53 %1020 hPa16.1 kmSSE (150°)18.5 km/h27.8 km/hClear
10:55 AM21 °C11 °C53 %1020 hPa16.1 kmSSE (160°)16.7 km/h29.6 km/hClear
11:15 AM22 °C10 °C46 %1020 hPa16.1 kmSSE (150°)20.4 km/h31.5 km/hScattered Clouds
11:35 AM22 °C11 °C50 %1019.6 hPa16.1 kmSE (140°)16.7 km/h27.8 km/hScattered Clouds
11:55 AM22 °C10 °C46 %1019.6 hPa16.1 kmSSE (150°)16.7 km/h25.9 km/hScattered Clouds
12:15 PM22 °C11 °C50 %1019.3 hPa16.1 kmSE (140°)13 km/hScattered Clouds
12:35 PM22 °C11 °C50 %1019.3 hPa16.1 kmSE (140°)11.1 km/hMostly Cloudy
12:55 PM22 °C10 °C46 %1019 hPa16.1 kmSSE (150°)14.8 km/hMostly Cloudy
1:15 PM22 °C11 °C50 %1018.6 hPa16.1 kmSE (130°)13 km/hMostly Cloudy
1:35 PM22 °C11 °C50 %1017.9 hPa16.1 kmESE (120°)13 km/hScattered Clouds
1:55 PM22 °C11 °C50 %1017.9 hPa16.1 kmESE (110°)13 km/hScattered Clouds
2:15 PM22 °C11 °C50 %1017.9 hPa16.1 kmESE (110°)9.3 km/hScattered Clouds
2:35 PM22 °C11 °C50 %1017.6 hPa16.1 kmEast (100°)9.3 km/hMostly Cloudy
2:55 PM22 °C11 °C50 %1017.6 hPa16.1 kmESE (110°)11.1 km/hMostly Cloudy
3:15 PM22 °C11 °C50 %1017.3 hPa16.1 kmSE (130°)13 km/hMostly Cloudy
3:35 PM21 °C11 °C53 %1017.3 hPa16.1 kmESE (110°)13 km/hOvercast
3:55 PM21 °C11 °C53 %1017.3 hPa16.1 kmESE (120°)11.1 km/hOvercast
4:15 PM21 °C12 °C56 %1017.3 hPa16.1 kmESE (120°)9.3 km/hOvercast
4:35 PM21 °C11 °C53 %1017.6 hPa16.1 kmSE (130°)5.6 km/hOvercast
4:55 PM21 °C12 °C56 %1017.3 hPa16.1 kmESE (120°)9.3 km/hOvercast
5:15 PM21 °C11 °C53 %1017.3 hPa16.1 kmESE (120°)9.3 km/hMostly Cloudy
5:35 PM21 °C12 °C56 %1017.3 hPa16.1 kmESE (120°)7.4 km/hScattered Clouds
5:55 PM20 °C12 °C60 %1017.3 hPa16.1 kmCalmClear
6:15 PM20 °C12 °C60 %1017.3 hPa16.1 kmESE (120°)5.6 km/hClear
6:35 PM18 °C12 °C68 %1017.3 hPa16.1 kmCalmClear
6:55 PM18 °C13 °C73 %1017.3 hPa16.1 kmCalmClear
7:15 PM17 °C13 °C77 %1017.3 hPa16.1 kmESE (120°)5.6 km/hClear
7:55 PM17 °C13 °C77 %1017.6 hPa16.1 kmCalmClear
8:15 PM17 °C13 °C77 %1017.6 hPa16.1 kmSE (130°)5.6 km/hClear
8:35 PM17 °C13 °C77 %1017.9 hPa16.1 kmCalmClear
8:55 PM17 °C13 °C77 %1017.9 hPa16.1 kmCalmClear
9:15 PM17 °C13 °C77 %1017.9 hPa16.1 kmCalmClear
9:35 PM17 °C13 °C77 %1017.9 hPa16.1 kmCalmClear
9:55 PM17 °C13 °C77 %1017.9 hPa16.1 kmSSE (150°)5.6 km/hClear
10:15 PM17 °C13 °C77 %1017.9 hPa16.1 kmCalmClear
10:35 PM17 °C13 °C77 %1017.9 hPa16.1 kmSE (140°)5.6 km/hClear
10:55 PM17 °C13 °C77 %1017.6 hPa16.1 kmSE (140°)7.4 km/hClear
11:15 PM17 °C13 °C77 %1017.6 hPa16.1 kmSSE (150°)11.1 km/hClear
11:35 PM17 °C13 °C77 %1017.3 hPa16.1 kmSE (140°)7.4 km/hScattered Clouds
11:55 PM17 °C13 °C77 %1016.9 hPa16.1 kmSE (140°)11.1 km/hScattered Clouds
Hourly data recorded from KMDQ, located 0 kilometers away from Fayetteville, Tennessee







STORIES FROM OUR PARTNERS